Location: Jetmore
(38.0845°N, 99.8935°W)
Time: 20:26:05
(UTC+00:00)

N. Korean satellite - Pass Details

Date: 19 September 2021
Orbit: 450 x 495 km, 97.3° (Epoch: 23 October)

Event Time Altitude Azimuth Distance (km) Brightness Sun altitude
Rises 11:05:00 0° 30° (NNE) 2,509 10.9 -16.4°
Reaches altitude 10° 11:07:33 10° 50° (NE) 1,637 10.3 -15.9°
Maximum altitude 11:10:00 18° 95° (E) 1,237 9.6 -15.4°
Drops below altitude 10° 11:12:28 10° 139° (SE) 1,646 9.6 -14.9°
Sets 11:15:02 0° 159° (SSE) 2,529 10.3 -14.5°
